Вернуться в каталог

PSLV DEB

АктивенPO
NORAD 27123·DEBRIS·🇮🇳 India

Запущен Oct 22, 2001 с Satish Dhawan Space Centre

Loading…

Ближайшие Пролёты (ближайшие 24 часа)

TLE

СвежийSource: Space-Track

Эпоха: Sep 14, 2026, 14:21 UTC

1 27123U 01049BT  26257.59859224  .00000792  00000-0  13034-3 0  9997
2 27123  97.3788 206.4477 0039507 117.0757 243.4492 14.72427942319475

Отслеживайте PSLV DEB в реальном времени с AllMySat

Download on the App Store